owner,sensor,date,latitude,longitude,relative_humidity,qcFlag 
LUMCON,ioos:station:LUMCON:102:1,2017-05-01T00:00:00Z,29.1870,-90.6093,86.1,1111122 
LUMCON,ioos:station:LUMCON:102:1,2017-05-01T00:15:00Z,29.1870,-90.6093,86.6,1111122 
LUMCON,ioos:station:LUMCON:102:1,2017-05-01T00:30:00Z,29.1870,-90.6093,85.6,1111122 
LUMCON,ioos:station:LUMCON:102:1,2017-05-01T00:45:00Z,29.1870,-90.6093,84.2,1111122 
LUMCON,ioos:station:LUMCON:102:1,2017-05-01T01:00:00Z,29.1870,-90.6093,83.5,1111122 
LUMCON,ioos:station:LUMCON:102:1,2017-05-01T01:15:00Z,29.1870,-90.6093,79.2,1111122 
LUMCON,ioos:station:LUMCON:102:1,2017-05-01T01:30:00Z,29.1870,-90.6093,74.6,1111122 
LUMCON,ioos:station:LUMCON:102:1,2017-05-01T01:45:00Z,29.1870,-90.6093,75.1,1111122 
LUMCON,ioos:station:LUMCON:102:1,2017-05-01T02:00:00Z,29.1870,-90.6093,74.4,1111122 
LUMCON,ioos:station:LUMCON:102:1,2017-05-01T02:15:00Z,29.1870,-90.6093,78.3,1111122 
LUMCON,ioos:station:LUMCON:102:1,2017-05-01T02:30:00Z,29.1870,-90.6093,77.5,1111122 
LUMCON,ioos:station:LUMCON:102:1,2017-05-01T02:45:00Z,29.1870,-90.6093,79.6,1111122 
LUMCON,ioos:station:LUMCON:102:1,2017-05-01T03:00:00Z,29.1870,-90.6093,76.7,1111122 
LUMCON,ioos:station:LUMCON:102:1,2017-05-01T03:15:00Z,29.1870,-90.6093,77.9,1111122 
LUMCON,ioos:station:LUMCON:102:1,2017-05-01T03:30:00Z,29.1870,-90.6093,76.6,1111122 
LUMCON,ioos:station:LUMCON:102:1,2017-05-01T03:45:00Z,29.1870,-90.6093,71.2,1111122 
LUMCON,ioos:station:LUMCON:102:1,2017-05-01T04:00:00Z,29.1870,-90.6093,60.5,1111122 
LUMCON,ioos:station:LUMCON:102:1,2017-05-01T04:15:00Z,29.1870,-90.6093,63.9,1111122 
LUMCON,ioos:station:LUMCON:102:1,2017-05-01T04:30:00Z,29.1870,-90.6093,59.8,1111122 
LUMCON,ioos:station:LUMCON:102:1,2017-05-01T04:45:00Z,29.1870,-90.6093,63.3,1111122 
LUMCON,ioos:station:LUMCON:102:1,2017-05-01T05:00:00Z,29.1870,-90.6093,60.7,1111122 
LUMCON,ioos:station:LUMCON:102:1,2017-05-01T05:15:00Z,29.1870,-90.6093,60.8,1111122 
LUMCON,ioos:station:LUMCON:102:1,2017-05-01T05:30:00Z,29.1870,-90.6093,64.9,1111122 
LUMCON,ioos:station:LUMCON:102:1,2017-05-01T05:45:00Z,29.1870,-90.6093,64.0,1111122 
LUMCON,ioos:station:LUMCON:102:1,2017-05-01T06:00:00Z,29.1870,-90.6093,67.6,1111122 
LUMCON,ioos:station:LUMCON:102:1,2017-05-01T06:15:00Z,29.1870,-90.6093,70.0,1111122 
LUMCON,ioos:station:LUMCON:102:1,2017-05-01T06:30:00Z,29.1870,-90.6093,64.2,1111122 
LUMCON,ioos:station:LUMCON:102:1,2017-05-01T06:45:00Z,29.1870,-90.6093,63.4,1111122 
LUMCON,ioos:station:LUMCON:102:1,2017-05-01T07:00:00Z,29.1870,-90.6093,63.6,1111122 
LUMCON,ioos:station:LUMCON:102:1,2017-05-01T07:15:00Z,29.1870,-90.6093,63.2,1111122 
LUMCON,ioos:station:LUMCON:102:1,2017-05-01T07:30:00Z,29.1870,-90.6093,65.8,1111122 
LUMCON,ioos:station:LUMCON:102:1,2017-05-01T07:45:00Z,29.1870,-90.6093,68.0,1111122 
LUMCON,ioos:station:LUMCON:102:1,2017-05-01T08:00:00Z,29.1870,-90.6093,63.9,1111122 
LUMCON,ioos:station:LUMCON:102:1,2017-05-01T08:15:00Z,29.1870,-90.6093,64.3,1111122 
LUMCON,ioos:station:LUMCON:102:1,2017-05-01T08:30:00Z,29.1870,-90.6093,61.9,1111122 
LUMCON,ioos:station:LUMCON:102:1,2017-05-01T08:45:00Z,29.1870,-90.6093,62.7,1111122 
LUMCON,ioos:station:LUMCON:102:1,2017-05-01T09:00:00Z,29.1870,-90.6093,64.4,1111122 
LUMCON,ioos:station:LUMCON:102:1,2017-05-01T09:15:00Z,29.1870,-90.6093,58.8,1111122 
LUMCON,ioos:station:LUMCON:102:1,2017-05-01T09:30:00Z,29.1870,-90.6093,60.4,1111122 
LUMCON,ioos:station:LUMCON:102:1,2017-05-01T09:45:00Z,29.1870,-90.6093,60.5,1111122 
LUMCON,ioos:station:LUMCON:102:1,2017-05-01T10:00:00Z,29.1870,-90.6093,57.7,1111122 
LUMCON,ioos:station:LUMCON:102:1,2017-05-01T10:15:00Z,29.1870,-90.6093,55.8,1111122 
LUMCON,ioos:station:LUMCON:102:1,2017-05-01T10:30:00Z,29.1870,-90.6093,59.6,1111122 
LUMCON,ioos:station:LUMCON:102:1,2017-05-01T10:45:00Z,29.1870,-90.6093,57.6,1111122 
LUMCON,ioos:station:LUMCON:102:1,2017-05-01T11:00:00Z,29.1870,-90.6093,61.7,1111122 
LUMCON,ioos:station:LUMCON:102:1,2017-05-01T11:15:00Z,29.1870,-90.6093,63.8,1111122 
LUMCON,ioos:station:LUMCON:102:1,2017-05-01T11:30:00Z,29.1870,-90.6093,59.0,1111122 
LUMCON,ioos:station:LUMCON:102:1,2017-05-01T11:45:00Z,29.1870,-90.6093,56.2,1111122 
LUMCON,ioos:station:LUMCON:102:1,2017-05-01T12:00:00Z,29.1870,-90.6093,57.1,1111122 
LUMCON,ioos:station:LUMCON:102:1,2017-05-01T12:15:00Z,29.1870,-90.6093,56.6,1111122 
LUMCON,ioos:station:LUMCON:102:1,2017-05-01T12:30:00Z,29.1870,-90.6093,53.9,1111122 
LUMCON,ioos:station:LUMCON:102:1,2017-05-01T12:45:00Z,29.1870,-90.6093,55.3,1111122 
LUMCON,ioos:station:LUMCON:102:1,2017-05-01T13:00:00Z,29.1870,-90.6093,52.9,1111122 
LUMCON,ioos:station:LUMCON:102:1,2017-05-01T13:15:00Z,29.1870,-90.6093,46.9,1111122 
LUMCON,ioos:station:LUMCON:102:1,2017-05-01T13:30:00Z,29.1870,-90.6093,54.2,1111122 
LUMCON,ioos:station:LUMCON:102:1,2017-05-01T13:45:00Z,29.1870,-90.6093,47.1,1111122 
LUMCON,ioos:station:LUMCON:102:1,2017-05-01T14:00:00Z,29.1870,-90.6093,43.2,1111122 
LUMCON,ioos:station:LUMCON:102:1,2017-05-01T14:15:00Z,29.1870,-90.6093,41.8,1111122 
LUMCON,ioos:station:LUMCON:102:1,2017-05-01T14:30:00Z,29.1870,-90.6093,46.9,1111122 
LUMCON,ioos:station:LUMCON:102:1,2017-05-01T14:45:00Z,29.1870,-90.6093,40.3,1111122 
LUMCON,ioos:station:LUMCON:102:1,2017-05-01T15:00:00Z,29.1870,-90.6093,41.6,1111122 
LUMCON,ioos:station:LUMCON:102:1,2017-05-01T15:15:00Z,29.1870,-90.6093,40.9,1111122 
LUMCON,ioos:station:LUMCON:102:1,2017-05-01T15:30:00Z,29.1870,-90.6093,43.3,1111122 
LUMCON,ioos:station:LUMCON:102:1,2017-05-01T15:45:00Z,29.1870,-90.6093,39.9,1111122 
LUMCON,ioos:station:LUMCON:102:1,2017-05-01T16:00:00Z,29.1870,-90.6093,43.6,1111122 
LUMCON,ioos:station:LUMCON:102:1,2017-05-01T16:15:00Z,29.1870,-90.6093,47.0,1111122 
LUMCON,ioos:station:LUMCON:102:1,2017-05-01T16:30:00Z,29.1870,-90.6093,45.1,1111122 
LUMCON,ioos:station:LUMCON:102:1,2017-05-01T16:45:00Z,29.1870,-90.6093,42.9,1111122 
LUMCON,ioos:station:LUMCON:102:1,2017-05-01T17:00:00Z,29.1870,-90.6093,43.4,1111122 
LUMCON,ioos:station:LUMCON:102:1,2017-05-01T17:15:00Z,29.1870,-90.6093,38.1,1111122 
LUMCON,ioos:station:LUMCON:102:1,2017-05-01T17:30:00Z,29.1870,-90.6093,38.4,1111122 
LUMCON,ioos:station:LUMCON:102:1,2017-05-01T17:45:00Z,29.1870,-90.6093,36.7,1111122 
LUMCON,ioos:station:LUMCON:102:1,2017-05-01T18:00:00Z,29.1870,-90.6093,34.1,1111122 
LUMCON,ioos:station:LUMCON:102:1,2017-05-01T18:15:00Z,29.1870,-90.6093,36.3,1111122 
LUMCON,ioos:station:LUMCON:102:1,2017-05-01T18:30:00Z,29.1870,-90.6093,36.4,1111122 
LUMCON,ioos:station:LUMCON:102:1,2017-05-01T18:45:00Z,29.1870,-90.6093,36.3,1111122 
LUMCON,ioos:station:LUMCON:102:1,2017-05-01T19:00:00Z,29.1870,-90.6093,42.4,1111122 
LUMCON,ioos:station:LUMCON:102:1,2017-05-01T19:15:00Z,29.1870,-90.6093,44.0,1111122 
LUMCON,ioos:station:LUMCON:102:1,2017-05-01T19:30:00Z,29.1870,-90.6093,41.4,1111122 
LUMCON,ioos:station:LUMCON:102:1,2017-05-01T19:45:00Z,29.1870,-90.6093,40.0,1111122 
LUMCON,ioos:station:LUMCON:102:1,2017-05-01T20:00:00Z,29.1870,-90.6093,40.4,1111122 
LUMCON,ioos:station:LUMCON:102:1,2017-05-01T20:15:00Z,29.1870,-90.6093,41.3,1111122 
LUMCON,ioos:station:LUMCON:102:1,2017-05-01T20:30:00Z,29.1870,-90.6093,39.2,1111122 
LUMCON,ioos:station:LUMCON:102:1,2017-05-01T20:45:00Z,29.1870,-90.6093,37.6,1111122 
LUMCON,ioos:station:LUMCON:102:1,2017-05-01T21:00:00Z,29.1870,-90.6093,35.1,1111122 
LUMCON,ioos:station:LUMCON:102:1,2017-05-01T21:15:00Z,29.1870,-90.6093,40.5,1111122 
LUMCON,ioos:station:LUMCON:102:1,2017-05-01T21:30:00Z,29.1870,-90.6093,44.6,1111122 
LUMCON,ioos:station:LUMCON:102:1,2017-05-01T21:45:00Z,29.1870,-90.6093,42.4,1111122 
LUMCON,ioos:station:LUMCON:102:1,2017-05-01T22:00:00Z,29.1870,-90.6093,42.0,1111122 
LUMCON,ioos:station:LUMCON:102:1,2017-05-01T22:15:00Z,29.1870,-90.6093,46.0,1111122 
LUMCON,ioos:station:LUMCON:102:1,2017-05-01T22:30:00Z,29.1870,-90.6093,43.6,1111122 
LUMCON,ioos:station:LUMCON:102:1,2017-05-01T22:45:00Z,29.1870,-90.6093,47.1,1111122 
LUMCON,ioos:station:LUMCON:102:1,2017-05-01T23:00:00Z,29.1870,-90.6093,45.9,1111122 
LUMCON,ioos:station:LUMCON:102:1,2017-05-01T23:15:00Z,29.1870,-90.6093,45.6,1111122 
LUMCON,ioos:station:LUMCON:102:1,2017-05-01T23:30:00Z,29.1870,-90.6093,48.5,1111122 
LUMCON,ioos:station:LUMCON:102:1,2017-05-01T23:45:00Z,29.1870,-90.6093,45.1,1111122 
LUMCON,ioos:station:LUMCON:102:1,2017-05-02T00:00:00Z,29.1870,-90.6093,47.9,1111122 
LUMCON,ioos:station:LUMCON:102:1,2017-05-02T00:15:00Z,29.1870,-90.6093,45.6,1111122 
LUMCON,ioos:station:LUMCON:102:1,2017-05-02T00:30:00Z,29.1870,-90.6093,49.8,1111122 
LUMCON,ioos:station:LUMCON:102:1,2017-05-02T00:45:00Z,29.1870,-90.6093,47.2,1111122 
LUMCON,ioos:station:LUMCON:102:1,2017-05-02T01:00:00Z,29.1870,-90.6093,47.1,1111122 
LUMCON,ioos:station:LUMCON:102:1,2017-05-02T01:15:00Z,29.1870,-90.6093,52.1,1111122 
LUMCON,ioos:station:LUMCON:102:1,2017-05-02T01:30:00Z,29.1870,-90.6093,47.9,1111122 
LUMCON,ioos:station:LUMCON:102:1,2017-05-02T01:45:00Z,29.1870,-90.6093,49.3,1111122 
LUMCON,ioos:station:LUMCON:102:1,2017-05-02T02:00:00Z,29.1870,-90.6093,48.7,1111122 
LUMCON,ioos:station:LUMCON:102:1,2017-05-02T02:15:00Z,29.1870,-90.6093,48.1,1111122 
LUMCON,ioos:station:LUMCON:102:1,2017-05-02T02:30:00Z,29.1870,-90.6093,51.3,1111122 
LUMCON,ioos:station:LUMCON:102:1,2017-05-02T02:45:00Z,29.1870,-90.6093,50.0,1111122 
LUMCON,ioos:station:LUMCON:102:1,2017-05-02T03:00:00Z,29.1870,-90.6093,47.1,1111122 
LUMCON,ioos:station:LUMCON:102:1,2017-05-02T03:15:00Z,29.1870,-90.6093,48.2,1111122 
LUMCON,ioos:station:LUMCON:102:1,2017-05-02T03:30:00Z,29.1870,-90.6093,49.4,1111122 
LUMCON,ioos:station:LUMCON:102:1,2017-05-02T03:45:00Z,29.1870,-90.6093,49.7,1111122 
LUMCON,ioos:station:LUMCON:102:1,2017-05-02T04:00:00Z,29.1870,-90.6093,51.2,1111122 
LUMCON,ioos:station:LUMCON:102:1,2017-05-02T04:15:00Z,29.1870,-90.6093,53.8,1111122 
LUMCON,ioos:station:LUMCON:102:1,2017-05-02T04:30:00Z,29.1870,-90.6093,52.7,1111122 
LUMCON,ioos:station:LUMCON:102:1,2017-05-02T04:45:00Z,29.1870,-90.6093,52.1,1111122 
LUMCON,ioos:station:LUMCON:102:1,2017-05-02T05:00:00Z,29.1870,-90.6093,53.5,1111122 
LUMCON,ioos:station:LUMCON:102:1,2017-05-02T05:15:00Z,29.1870,-90.6093,55.3,1111122 
LUMCON,ioos:station:LUMCON:102:1,2017-05-02T05:30:00Z,29.1870,-90.6093,50.4,1111122 
LUMCON,ioos:station:LUMCON:102:1,2017-05-02T05:45:00Z,29.1870,-90.6093,50.8,1111122 
LUMCON,ioos:station:LUMCON:102:1,2017-05-02T06:00:00Z,29.1870,-90.6093,51.5,1111122 
LUMCON,ioos:station:LUMCON:102:1,2017-05-02T06:15:00Z,29.1870,-90.6093,54.3,1111122 
LUMCON,ioos:station:LUMCON:102:1,2017-05-02T06:30:00Z,29.1870,-90.6093,50.8,1111122 
LUMCON,ioos:station:LUMCON:102:1,2017-05-02T06:45:00Z,29.1870,-90.6093,48.4,1111122 
LUMCON,ioos:station:LUMCON:102:1,2017-05-02T07:00:00Z,29.1870,-90.6093,54.3,1111122 
LUMCON,ioos:station:LUMCON:102:1,2017-05-02T07:15:00Z,29.1870,-90.6093,54.7,1111122 
LUMCON,ioos:station:LUMCON:102:1,2017-05-02T07:30:00Z,29.1870,-90.6093,56.5,1111122 
LUMCON,ioos:station:LUMCON:102:1,2017-05-02T07:45:00Z,29.1870,-90.6093,58.1,1111122 
LUMCON,ioos:station:LUMCON:102:1,2017-05-02T08:00:00Z,29.1870,-90.6093,58.2,1111122 
LUMCON,ioos:station:LUMCON:102:1,2017-05-02T08:15:00Z,29.1870,-90.6093,57.4,1111122 
LUMCON,ioos:station:LUMCON:102:1,2017-05-02T08:30:00Z,29.1870,-90.6093,56.5,1111122 
LUMCON,ioos:station:LUMCON:102:1,2017-05-02T08:45:00Z,29.1870,-90.6093,58.9,1111122 
LUMCON,ioos:station:LUMCON:102:1,2017-05-02T09:00:00Z,29.1870,-90.6093,55.6,1111122 
LUMCON,ioos:station:LUMCON:102:1,2017-05-02T09:15:00Z,29.1870,-90.6093,56.0,1111122 
LUMCON,ioos:station:LUMCON:102:1,2017-05-02T09:30:00Z,29.1870,-90.6093,56.4,1111122 
LUMCON,ioos:station:LUMCON:102:1,2017-05-02T09:45:00Z,29.1870,-90.6093,56.5,1111122 
LUMCON,ioos:station:LUMCON:102:1,2017-05-02T10:00:00Z,29.1870,-90.6093,56.7,1111122 
LUMCON,ioos:station:LUMCON:102:1,2017-05-02T10:15:00Z,29.1870,-90.6093,56.4,1111122 
LUMCON,ioos:station:LUMCON:102:1,2017-05-02T10:30:00Z,29.1870,-90.6093,59.0,1111122 
LUMCON,ioos:station:LUMCON:102:1,2017-05-02T10:45:00Z,29.1870,-90.6093,58.9,1111122 
LUMCON,ioos:station:LUMCON:102:1,2017-05-02T11:00:00Z,29.1870,-90.6093,60.4,1111122 
LUMCON,ioos:station:LUMCON:102:1,2017-05-02T11:15:00Z,29.1870,-90.6093,61.0,1111122 
LUMCON,ioos:station:LUMCON:102:1,2017-05-02T11:30:00Z,29.1870,-90.6093,61.5,1111122 
LUMCON,ioos:station:LUMCON:102:1,2017-05-02T11:45:00Z,29.1870,-90.6093,63.8,1111122 
LUMCON,ioos:station:LUMCON:102:1,2017-05-02T12:00:00Z,29.1870,-90.6093,61.2,1111122 
LUMCON,ioos:station:LUMCON:102:1,2017-05-02T12:15:00Z,29.1870,-90.6093,61.6,1111122 
LUMCON,ioos:station:LUMCON:102:1,2017-05-02T12:30:00Z,29.1870,-90.6093,58.5,1111122 
LUMCON,ioos:station:LUMCON:102:1,2017-05-02T12:45:00Z,29.1870,-90.6093,63.6,1111122 
LUMCON,ioos:station:LUMCON:102:1,2017-05-02T13:00:00Z,29.1870,-90.6093,63.8,1111122 
LUMCON,ioos:station:LUMCON:102:1,2017-05-02T13:15:00Z,29.1870,-90.6093,64.7,1111122 
LUMCON,ioos:station:LUMCON:102:1,2017-05-02T13:30:00Z,29.1870,-90.6093,65.1,1111122 
LUMCON,ioos:station:LUMCON:102:1,2017-05-02T13:45:00Z,29.1870,-90.6093,65.7,1111122 
LUMCON,ioos:station:LUMCON:102:1,2017-05-02T14:00:00Z,29.1870,-90.6093,63.3,1111122 
LUMCON,ioos:station:LUMCON:102:1,2017-05-02T14:15:00Z,29.1870,-90.6093,62.6,1111122 
LUMCON,ioos:station:LUMCON:102:1,2017-05-02T14:30:00Z,29.1870,-90.6093,59.0,1111122 
LUMCON,ioos:station:LUMCON:102:1,2017-05-02T14:45:00Z,29.1870,-90.6093,59.6,1111122 
LUMCON,ioos:station:LUMCON:102:1,2017-05-02T15:00:00Z,29.1870,-90.6093,60.9,1111122 
LUMCON,ioos:station:LUMCON:102:1,2017-05-02T15:15:00Z,29.1870,-90.6093,61.9,1111122 
LUMCON,ioos:station:LUMCON:102:1,2017-05-02T15:30:00Z,29.1870,-90.6093,63.0,1111122 
LUMCON,ioos:station:LUMCON:102:1,2017-05-02T15:45:00Z,29.1870,-90.6093,62.5,1111122 
LUMCON,ioos:station:LUMCON:102:1,2017-05-02T16:00:00Z,29.1870,-90.6093,66.6,1111122 
LUMCON,ioos:station:LUMCON:102:1,2017-05-02T16:15:00Z,29.1870,-90.6093,64.2,1111122 
LUMCON,ioos:station:LUMCON:102:1,2017-05-02T16:30:00Z,29.1870,-90.6093,63.3,1111122 
LUMCON,ioos:station:LUMCON:102:1,2017-05-02T16:45:00Z,29.1870,-90.6093,57.1,1111122 
LUMCON,ioos:station:LUMCON:102:1,2017-05-02T17:00:00Z,29.1870,-90.6093,57.0,1111122 
LUMCON,ioos:station:LUMCON:102:1,2017-05-02T17:15:00Z,29.1870,-90.6093,58.8,1111122 
LUMCON,ioos:station:LUMCON:102:1,2017-05-02T17:30:00Z,29.1870,-90.6093,60.5,1111122 
LUMCON,ioos:station:LUMCON:102:1,2017-05-02T17:45:00Z,29.1870,-90.6093,63.9,1111122 
LUMCON,ioos:station:LUMCON:102:1,2017-05-02T18:00:00Z,29.1870,-90.6093,58.7,1111122 
LUMCON,ioos:station:LUMCON:102:1,2017-05-02T18:15:00Z,29.1870,-90.6093,56.8,1111122 
LUMCON,ioos:station:LUMCON:102:1,2017-05-02T18:30:00Z,29.1870,-90.6093,57.0,1111122 
LUMCON,ioos:station:LUMCON:102:1,2017-05-02T18:45:00Z,29.1870,-90.6093,53.6,1111122 
LUMCON,ioos:station:LUMCON:102:1,2017-05-02T19:00:00Z,29.1870,-90.6093,58.2,1111122 
LUMCON,ioos:station:LUMCON:102:1,2017-05-02T19:15:00Z,29.1870,-90.6093,56.1,1111122 
LUMCON,ioos:station:LUMCON:102:1,2017-05-02T19:30:00Z,29.1870,-90.6093,55.1,1111122 
LUMCON,ioos:station:LUMCON:102:1,2017-05-02T19:45:00Z,29.1870,-90.6093,53.4,1111122 
LUMCON,ioos:station:LUMCON:102:1,2017-05-02T20:00:00Z,29.1870,-90.6093,58.7,1111122 
LUMCON,ioos:station:LUMCON:102:1,2017-05-02T20:15:00Z,29.1870,-90.6093,50.9,1111122 
LUMCON,ioos:station:LUMCON:102:1,2017-05-02T20:30:00Z,29.1870,-90.6093,51.4,1111122 
LUMCON,ioos:station:LUMCON:102:1,2017-05-02T20:45:00Z,29.1870,-90.6093,56.6,1111122 
LUMCON,ioos:station:LUMCON:102:1,2017-05-02T21:00:00Z,29.1870,-90.6093,52.1,1111122 
LUMCON,ioos:station:LUMCON:102:1,2017-05-02T21:15:00Z,29.1870,-90.6093,51.5,1111122 
LUMCON,ioos:station:LUMCON:102:1,2017-05-02T21:30:00Z,29.1870,-90.6093,51.7,1111122 
LUMCON,ioos:station:LUMCON:102:1,2017-05-02T21:45:00Z,29.1870,-90.6093,49.5,1111122 
LUMCON,ioos:station:LUMCON:102:1,2017-05-02T22:00:00Z,29.1870,-90.6093,50.4,1111122 
LUMCON,ioos:station:LUMCON:102:1,2017-05-02T22:15:00Z,29.1870,-90.6093,48.6,1111122 
LUMCON,ioos:station:LUMCON:102:1,2017-05-02T22:30:00Z,29.1870,-90.6093,54.5,1111122 
LUMCON,ioos:station:LUMCON:102:1,2017-05-02T22:45:00Z,29.1870,-90.6093,52.4,1111122 
LUMCON,ioos:station:LUMCON:102:1,2017-05-02T23:00:00Z,29.1870,-90.6093,48.2,1111122 
LUMCON,ioos:station:LUMCON:102:1,2017-05-02T23:15:00Z,29.1870,-90.6093,51.6,1111122 
LUMCON,ioos:station:LUMCON:102:1,2017-05-02T23:30:00Z,29.1870,-90.6093,55.6,1111122 
LUMCON,ioos:station:LUMCON:102:1,2017-05-02T23:45:00Z,29.1870,-90.6093,53.9,1111122 
LUMCON,ioos:station:LUMCON:102:1,2017-05-03T00:00:00Z,29.1870,-90.6093,52.5,1111122 
LUMCON,ioos:station:LUMCON:102:1,2017-05-03T00:15:00Z,29.1870,-90.6093,51.6,1111122 
LUMCON,ioos:station:LUMCON:102:1,2017-05-03T00:30:00Z,29.1870,-90.6093,60.3,1111122 
LUMCON,ioos:station:LUMCON:102:1,2017-05-03T00:45:00Z,29.1870,-90.6093,58.1,1111122 
LUMCON,ioos:station:LUMCON:102:1,2017-05-03T01:00:00Z,29.1870,-90.6093,53.7,1111122 
LUMCON,ioos:station:LUMCON:102:1,2017-05-03T01:15:00Z,29.1870,-90.6093,59.1,1111122 
LUMCON,ioos:station:LUMCON:102:1,2017-05-03T01:30:00Z,29.1870,-90.6093,57.0,1111122 
LUMCON,ioos:station:LUMCON:102:1,2017-05-03T01:45:00Z,29.1870,-90.6093,58.1,1111122 
LUMCON,ioos:station:LUMCON:102:1,2017-05-03T02:00:00Z,29.1870,-90.6093,59.7,1111122 
LUMCON,ioos:station:LUMCON:102:1,2017-05-03T02:15:00Z,29.1870,-90.6093,60.9,1111122 
LUMCON,ioos:station:LUMCON:102:1,2017-05-03T02:30:00Z,29.1870,-90.6093,62.9,1111122 
LUMCON,ioos:station:LUMCON:102:1,2017-05-03T02:45:00Z,29.1870,-90.6093,60.7,1111122 
LUMCON,ioos:station:LUMCON:102:1,2017-05-03T03:00:00Z,29.1870,-90.6093,61.5,1111122 
LUMCON,ioos:station:LUMCON:102:1,2017-05-03T03:15:00Z,29.1870,-90.6093,60.8,1111122 
LUMCON,ioos:station:LUMCON:102:1,2017-05-03T03:30:00Z,29.1870,-90.6093,61.3,1111122 
LUMCON,ioos:station:LUMCON:102:1,2017-05-03T03:45:00Z,29.1870,-90.6093,62.2,1111122 
LUMCON,ioos:station:LUMCON:102:1,2017-05-03T04:00:00Z,29.1870,-90.6093,63.5,1111122 
LUMCON,ioos:station:LUMCON:102:1,2017-05-03T04:15:00Z,29.1870,-90.6093,62.2,1111122 
LUMCON,ioos:station:LUMCON:102:1,2017-05-03T04:30:00Z,29.1870,-90.6093,64.6,1111122 
LUMCON,ioos:station:LUMCON:102:1,2017-05-03T04:45:00Z,29.1870,-90.6093,63.0,1111122 
LUMCON,ioos:station:LUMCON:102:1,2017-05-03T05:00:00Z,29.1870,-90.6093,63.5,1111122 
LUMCON,ioos:station:LUMCON:102:1,2017-05-03T05:15:00Z,29.1870,-90.6093,62.7,1111122 
LUMCON,ioos:station:LUMCON:102:1,2017-05-03T05:30:00Z,29.1870,-90.6093,65.9,1111122 
LUMCON,ioos:station:LUMCON:102:1,2017-05-03T05:45:00Z,29.1870,-90.6093,66.5,1111122 
LUMCON,ioos:station:LUMCON:102:1,2017-05-03T06:00:00Z,29.1870,-90.6093,68.2,1111122 
LUMCON,ioos:station:LUMCON:102:1,2017-05-03T06:15:00Z,29.1870,-90.6093,68.2,1111122 
LUMCON,ioos:station:LUMCON:102:1,2017-05-03T06:30:00Z,29.1870,-90.6093,67.8,1111122 
LUMCON,ioos:station:LUMCON:102:1,2017-05-03T06:45:00Z,29.1870,-90.6093,64.9,1111122 
LUMCON,ioos:station:LUMCON:102:1,2017-05-03T07:00:00Z,29.1870,-90.6093,66.0,1111122 
LUMCON,ioos:station:LUMCON:102:1,2017-05-03T07:15:00Z,29.1870,-90.6093,64.8,1111122 
LUMCON,ioos:station:LUMCON:102:1,2017-05-03T07:30:00Z,29.1870,-90.6093,64.1,1111122 
LUMCON,ioos:station:LUMCON:102:1,2017-05-03T07:45:00Z,29.1870,-90.6093,66.8,1111122 
LUMCON,ioos:station:LUMCON:102:1,2017-05-03T08:00:00Z,29.1870,-90.6093,66.7,1111122 
LUMCON,ioos:station:LUMCON:102:1,2017-05-03T08:15:00Z,29.1870,-90.6093,67.2,1111122 
LUMCON,ioos:station:LUMCON:102:1,2017-05-03T08:30:00Z,29.1870,-90.6093,70.5,1111122 
LUMCON,ioos:station:LUMCON:102:1,2017-05-03T08:45:00Z,29.1870,-90.6093,70.8,1111122 
LUMCON,ioos:station:LUMCON:102:1,2017-05-03T09:00:00Z,29.1870,-90.6093,70.4,1111122 
LUMCON,ioos:station:LUMCON:102:1,2017-05-03T09:15:00Z,29.1870,-90.6093,69.5,1111122 
LUMCON,ioos:station:LUMCON:102:1,2017-05-03T09:30:00Z,29.1870,-90.6093,72.1,1111122 
LUMCON,ioos:station:LUMCON:102:1,2017-05-03T09:45:00Z,29.1870,-90.6093,73.0,1111122 
LUMCON,ioos:station:LUMCON:102:1,2017-05-03T10:00:00Z,29.1870,-90.6093,74.9,1111122 
LUMCON,ioos:station:LUMCON:102:1,2017-05-03T10:15:00Z,29.1870,-90.6093,75.8,1111122 
LUMCON,ioos:station:LUMCON:102:1,2017-05-03T10:30:00Z,29.1870,-90.6093,76.5,1111122 
LUMCON,ioos:station:LUMCON:102:1,2017-05-03T10:45:00Z,29.1870,-90.6093,75.7,1111122 
LUMCON,ioos:station:LUMCON:102:1,2017-05-03T11:00:00Z,29.1870,-90.6093,77.2,1111122 
LUMCON,ioos:station:LUMCON:102:1,2017-05-03T11:15:00Z,29.1870,-90.6093,77.2,1111122 
LUMCON,ioos:station:LUMCON:102:1,2017-05-03T11:30:00Z,29.1870,-90.6093,78.1,1111122 
LUMCON,ioos:station:LUMCON:102:1,2017-05-03T11:45:00Z,29.1870,-90.6093,77.9,1111122 
LUMCON,ioos:station:LUMCON:102:1,2017-05-03T12:00:00Z,29.1870,-90.6093,77.9,1111122 
LUMCON,ioos:station:LUMCON:102:1,2017-05-03T12:15:00Z,29.1870,-90.6093,78.7,1111122 
LUMCON,ioos:station:LUMCON:102:1,2017-05-03T12:30:00Z,29.1870,-90.6093,78.4,1111122 
LUMCON,ioos:station:LUMCON:102:1,2017-05-03T12:45:00Z,29.1870,-90.6093,78.9,1111122 
LUMCON,ioos:station:LUMCON:102:1,2017-05-03T13:00:00Z,29.1870,-90.6093,76.5,1111122 
LUMCON,ioos:station:LUMCON:102:1,2017-05-03T13:15:00Z,29.1870,-90.6093,77.8,1111122 
LUMCON,ioos:station:LUMCON:102:1,2017-05-03T13:30:00Z,29.1870,-90.6093,74.9,1111122 
LUMCON,ioos:station:LUMCON:102:1,2017-05-03T13:45:00Z,29.1870,-90.6093,77.1,1111122 
LUMCON,ioos:station:LUMCON:102:1,2017-05-03T14:00:00Z,29.1870,-90.6093,78.6,1111122 
LUMCON,ioos:station:LUMCON:102:1,2017-05-03T14:15:00Z,29.1870,-90.6093,79.3,1111122 
LUMCON,ioos:station:LUMCON:102:1,2017-05-03T14:30:00Z,29.1870,-90.6093,80.8,1111122 
LUMCON,ioos:station:LUMCON:102:1,2017-05-03T14:45:00Z,29.1870,-90.6093,80.9,1111122 
LUMCON,ioos:station:LUMCON:102:1,2017-05-03T15:00:00Z,29.1870,-90.6093,81.6,1111122 
LUMCON,ioos:station:LUMCON:102:1,2017-05-03T15:15:00Z,29.1870,-90.6093,83.9,1111122 
LUMCON,ioos:station:LUMCON:102:1,2017-05-03T15:30:00Z,29.1870,-90.6093,84.3,1111122 
LUMCON,ioos:station:LUMCON:102:1,2017-05-03T15:45:00Z,29.1870,-90.6093,83.5,1111122 
LUMCON,ioos:station:LUMCON:102:1,2017-05-03T16:00:00Z,29.1870,-90.6093,87.4,1111122 
LUMCON,ioos:station:LUMCON:102:1,2017-05-03T16:15:00Z,29.1870,-90.6093,89.2,1111122 
LUMCON,ioos:station:LUMCON:102:1,2017-05-03T16:30:00Z,29.1870,-90.6093,87.5,1111122 
LUMCON,ioos:station:LUMCON:102:1,2017-05-03T16:45:00Z,29.1870,-90.6093,77.7,1111122 
LUMCON,ioos:station:LUMCON:102:1,2017-05-03T17:00:00Z,29.1870,-90.6093,84.2,1111122 
LUMCON,ioos:station:LUMCON:102:1,2017-05-03T17:15:00Z,29.1870,-90.6093,85.4,1111122 
LUMCON,ioos:station:LUMCON:102:1,2017-05-03T17:30:00Z,29.1870,-90.6093,84.4,1111122 
LUMCON,ioos:station:LUMCON:102:1,2017-05-03T17:45:00Z,29.1870,-90.6093,84.0,1111122 
LUMCON,ioos:station:LUMCON:102:1,2017-05-03T18:00:00Z,29.1870,-90.6093,85.1,1111122 
LUMCON,ioos:station:LUMCON:102:1,2017-05-03T18:15:00Z,29.1870,-90.6093,84.2,1111122 
LUMCON,ioos:station:LUMCON:102:1,2017-05-03T18:30:00Z,29.1870,-90.6093,85.1,1111122 
LUMCON,ioos:station:LUMCON:102:1,2017-05-03T18:45:00Z,29.1870,-90.6093,84.7,1111122 
LUMCON,ioos:station:LUMCON:102:1,2017-05-03T19:00:00Z,29.1870,-90.6093,85.6,1111122 
LUMCON,ioos:station:LUMCON:102:1,2017-05-03T19:15:00Z,29.1870,-90.6093,85.8,1111122 
LUMCON,ioos:station:LUMCON:102:1,2017-05-03T19:30:00Z,29.1870,-90.6093,86.6,1111122 
LUMCON,ioos:station:LUMCON:102:1,2017-05-03T19:45:00Z,29.1870,-90.6093,76.2,1111122 
LUMCON,ioos:station:LUMCON:102:1,2017-05-03T20:00:00Z,29.1870,-90.6093,89.4,1111122 
LUMCON,ioos:station:LUMCON:102:1,2017-05-03T20:15:00Z,29.1870,-90.6093,93.6,1111122 
LUMCON,ioos:station:LUMCON:102:1,2017-05-03T20:30:00Z,29.1870,-90.6093,93.4,1111122 
LUMCON,ioos:station:LUMCON:102:1,2017-05-03T20:45:00Z,29.1870,-90.6093,93.2,1111122 
LUMCON,ioos:station:LUMCON:102:1,2017-05-03T21:00:00Z,29.1870,-90.6093,91.7,1111122 
LUMCON,ioos:station:LUMCON:102:1,2017-05-03T21:15:00Z,29.1870,-90.6093,87.4,1111122 
LUMCON,ioos:station:LUMCON:102:1,2017-05-03T21:30:00Z,29.1870,-90.6093,87.5,1111122 
LUMCON,ioos:station:LUMCON:102:1,2017-05-03T21:45:00Z,29.1870,-90.6093,87.7,1111122 
LUMCON,ioos:station:LUMCON:102:1,2017-05-03T22:00:00Z,29.1870,-90.6093,86.0,1111122 